Location: Heisler
(52.6701°N, 112.2239°W)
Time: 09:06:32
(UTC+00:00)

Envisat - Pass Details

Date: 09 December 2021
Orbit: 764 x 766 km, 98.2° (Epoch: 25 January)

Event Time Altitude Azimuth Distance (km) Brightness Sun altitude
Rises 10:45:58 0° 31° (NNE) 3,246 6.8 -41.2°
Reaches altitude 10° 10:50:50 10° 73° (ENE) 2,311 6.1 -40.5°
Maximum altitude 10:51:37 10° 81° (E) 2,287 6.1 -40.4°
Drops below altitude 10° 10:52:23 10° 90° (E) 2,308 6.1 -40.3°
Sets 10:57:12 0° 132° (SE) 3,225 6.6 -39.6°
